TimePDT,TemperatureF,Dew PointF,Humidity,Sea Level PressureIn,VisibilityMPH,Wind Direction,Wind SpeedMPH,Gust SpeedMPH,PrecipitationIn,Events,Conditions,WindDirDegrees,DateUTC
12:53 AM,43.0,34.0,71,29.92,10.0,Calm,Calm,-,N/A,,Overcast,0,2012-10-10 07:53:00
1:53 AM,43.0,34.0,71,29.94,10.0,Calm,Calm,-,N/A,,Overcast,0,2012-10-10 08:53:00
2:53 AM,39.0,33.1,79,29.94,10.0,Calm,Calm,-,N/A,,Partly Cloudy,0,2012-10-10 09:53:00
3:53 AM,36.0,30.9,82,29.94,10.0,Calm,Calm,-,N/A,,Clear,0,2012-10-10 10:53:00
4:53 AM,33.1,28.9,85,29.95,10.0,South,3.5,-,N/A,,Clear,190,2012-10-10 11:53:00
5:53 AM,32.0,28.0,85,29.97,10.0,Calm,Calm,-,N/A,,Clear,0,2012-10-10 12:53:00
6:53 AM,32.0,27.0,82,29.99,10.0,SW,4.6,-,N/A,,Clear,220,2012-10-10 13:53:00
7:53 AM,30.9,27.0,85,30.01,10.0,South,3.5,-,N/A,,Clear,180,2012-10-10 14:53:00
8:53 AM,41.0,30.0,65,29.99,10.0,South,4.6,-,N/A,,Clear,180,2012-10-10 15:53:00
9:53 AM,52.0,33.1,49,29.96,10.0,Calm,Calm,-,N/A,,Clear,0,2012-10-10 16:53:00
10:53 AM,57.9,32.0,37,29.93,10.0,Calm,Calm,-,N/A,,Clear,0,2012-10-10 17:53:00
11:53 AM,60.1,30.9,33,29.91,10.0,Calm,Calm,-,N/A,,Clear,0,2012-10-10 18:53:00
12:53 PM,63.0,25.0,24,29.88,10.0,Variable,5.8,-,N/A,,Clear,0,2012-10-10 19:53:00
1:53 PM,62.1,21.0,21,29.86,10.0,ENE,9.2,19.6,N/A,,Clear,70,2012-10-10 20:53:00
2:53 PM,61.0,21.0,21,29.87,10.0,NE,8.1,16.1,N/A,,Partly Cloudy,50,2012-10-10 21:53:00
3:53 PM,61.0,21.9,22,29.86,10.0,NNE,6.9,-,N/A,,Clear,20,2012-10-10 22:53:00
4:53 PM,55.9,34.0,44,29.88,10.0,SSW,12.7,-,N/A,,Overcast,200,2012-10-10 23:53:00
5:53 PM,53.1,35.1,50,29.90,10.0,South,12.7,-,N/A,,Overcast,190,2012-10-11 00:53:00
6:53 PM,51.1,36.0,56,29.92,10.0,SSW,12.7,-,N/A,,Overcast,200,2012-10-11 01:53:00
7:53 PM,48.9,37.0,64,29.95,10.0,South,9.2,-,N/A,,Mostly Cloudy,190,2012-10-11 02:53:00
8:53 PM,46.9,37.9,71,29.93,10.0,South,4.6,-,0.00,,Overcast,170,2012-10-11 03:53:00
9:53 PM,46.9,37.9,71,29.91,10.0,Calm,Calm,-,0.00,,Overcast,0,2012-10-11 04:53:00
10:53 PM,45.0,37.9,76,29.90,10.0,South,4.6,-,N/A,,Mostly Cloudy,180,2012-10-11 05:53:00
11:53 PM,39.9,35.1,83,29.91,10.0,Calm,Calm,-,N/A,,Clear,0,2012-10-11 06:53:00